User: anonymous   Login
Location: Unspecified
(0.0000°N, 0.0000°E)
Time: 04:34:27
(UTC+00:00)
Language:

SWISSCUBE - Orbit

View from above orbital plane
View from above orbital plane
View from above satellite
View from above satellite

Ground track
Ground track

The orbit data is extracted from the following two-line orbital elements,

1 35932U 09051B   15090.13627609  .00001800  00000-0  42649-3 0  9993
2 35932 098.3981 208.4007 0007328 211.2391 148.8371 14.55232231292612
Epoch (UTC): 31 March 2015 03:16:14
Eccentricity: 0.0007328
inclination: 98.3981°
perigee height: 703 km
apogee height: 714 km
right ascension of ascending node: 208.4007°
argument of perigee: 211.2391°
revolutions per day: 14.55232231
mean anomaly at epoch: 148.8371°
orbit number at epoch: 29261

The dashed part of the orbit path shows where the satellite is in the earth's shadow,  

DLR